Weather in Yakunino

Russia / Kursk Oblast     51°41′33″N   36°23′32″E
temp.,
°C
wind,
m/s
gust,
m/s
humid.,
%
clouds,
%
prec.,
mm/h
press.,
hPa
HPBL,
m
27 november, sat
sat2700:00−1s5138899 0.0 1015313
03:00−1sse51395100 0.0 1013323
06:000sse61790100 0.0 1011541
09:00+2sse81986100 0.0 1008565
12:00+3sse91788100 0.5 1005807
15:00+3sse91994100 1.8 1003665
18:00+4s71794100 0.1 1003531
21:00+5s61296100 0.1 1004356
28 november, sun
sun2800:00+5s5119686 0.0 1004323
03:00+5ssw4897100 0.0 1005304
06:00+5sw3796100 0.0 1005213
09:00+5ssw259575 0.0 1007146
12:00+6ssw248618 0.0 1008277
15:00+7s238519 0.0 1009106
18:00+4sse379680 0.0 1010164
21:00+5se4991100 0.0 1009232
29 november, mon
mon2900:00+4se41196100 0.0 1009240
03:00+5se51096100 0.0 1007231
06:00+6se51098100 0.5 1005233
09:00+7se51298100 1.2 1002422
12:00+8sse61398100 0.3 999579
15:00+9sse71495100 0.7 995816
18:00+9sse71596100 2.1 991734
21:00+10s71493100 8.4 988736
30 november, tue
tue3000:00+10ssw61297100 15.4 984538
03:00+7wsw111684100 18.1 9861097
06:00+4wsw91578100 0.0 9901094
09:00+2sw91671100 0.1 9921352
12:00+3sw9156439 0.0 9931196
15:00+3sw9156896 0.0 9931342
18:00+2sw9156585 0.0 9931412
21:00+1sw9157597 0.1 9921034
1 december, wed
wed100:000wsw7128495 0.3 993999
03:00−1wsw61184100 0.4 9961025
06:00−2w7117996 0.2 998830
09:00−2w61179100 0.3 999969
12:00−1wsw7970100 0.1 10001040
15:00−2sw4792100 0.4 1000532
18:00−1sw499696 0.9 1000625
21:00−1wsw499691 1.1 1000495